Location: Clanezzo
(45.7500°N, 9.6000°E)
Time: 04:28:15
(UTC+00:00)

Cosmos 1782 - Pass Details

Date: 12 May 2021
Orbit: 537 x 550 km, 82.5° (Epoch: 18 June)

Event Time Altitude Azimuth Distance (km) Brightness Sun altitude
Exits shadow 20:15:42 - 199° (SSW) 2,625 6.0 -13.8°
Reaches altitude 10° 20:17:42 10° 203° (SSW) 1,814 5.2 -14.0°
Maximum altitude 20:21:37 54° 282° (WNW) 671 3.5 -14.5°
Drops below altitude 10° 20:25:33 10° 0° (N) 1,822 6.2 -15.0°
Sets 20:27:45 0° 5° (N) 2,717 7.0 -15.2°
